Farmington, NM

11:32 AM MDT on September 29, 2016 (GMT -0600)
East Mesa Verde Avenue | | Change Station

Elev 5452 ft 36.74 °N, 108.19 °W | Updated 8 minutes ago

Overcast
Overcast
60.6 °F
Feels Like 60.6 °F
N
1.9
Wind Variable Wind from East
Gusts 5.6 mph

Today
High -- | Low -- °F
--% Chance of Precip.
Yesterday
High -- | Low -- °F
Precip. -- in
Pressure 30.33 in
Visibility 10.0 miles
Clouds Overcast 6000 ft
Dew Point 53 °F
Humidity 75%
Rainfall 0.13 in
Snow Depth Not available.
7:06 AM 6:58 PM
Waning Crescent, 2% visible
METAR KFMN 291653Z 09008KT 10SM OVC060 15/11 A3045 RMK AO2 SLP271 T01500106
Pressure 30.33 in
Visibility 10.0 miles
Clouds Overcast 6000 ft
Dew Point 53 °F
Humidity 75%
Rainfall 0.13 in
Snow Depth Not available.
7:06 AM 6:58 PM
Waning Crescent, 2% visible
METAR KFMN 291653Z 09008KT 10SM OVC060 15/11 A3045 RMK AO2 SLP271 T01500106

10-Day Weather Forecast

Almanac

Astronomy

Sep. 29, 2016 Rise Set
Actual Time
Civil Twilight
Nautical Twilight
Astronomical Twilight
Moon
Length of Visible Light
Length of Day
Tomorrow will be .
, % of the Moon is Illuminated

Today's Extremes

State Highs State Lows

Community

WunderPhotos

Upload Photos

1,942,528 photos uploaded!

WunderBlog® & News

Nearby

Air Quality

  Air Quality AQ Index Pollutant
Not available.

Snow Depth

Station Depth Elevation

Earthquake Activity

City Distance Mag. Time & Date
Minimum magnitude displayed is 2.5.

Coastal Water Temperatures

Place Temperature

Stations

Nearby Weather Stations

Station Location Temp. Windchill Dew Point Humidity Wind Precip. Elev Updated Type
                   

Watches & Warnings

There are currently no watches in effect.